RH
28 29 30 29 29 28 28 27 28 30 32 34 34 31 27 27 26 20 14 12 13 14 14 14 14 13 13 14 13 14 12 17 30 31 26 20 14 13 12 9 7 8 10 13 14 9 8 8 8 7 8 7 7 8 6 8 12 17 24 29 37 46 55 49 35 37 40 39 44 45 41 45 47 38 35 38 43 50 53 55 58 59 63 71 78 77 78 80
29 30 30 30 29 28 28 28 29 31 34 35 35 32 28 28 25 18 13 11 13 13 13 14 13 13 13 13 14 13 14 21 30 27 21 18 14 14 9 5 7 10 12 14 12 8 7 8 8 7 8 7 6 7 7 11 14 21 39 48 43 37 36 34 30 30 35 40 41 38 37 38 39 36 34 44 52 52 56 58 56 62 64 67 76 75 74 77
30 30 30 30 29 29 29 28 29 32 34 36 36 32 29 28 22 14 11 10 13 13 13 14 12 14 12 14 13 12 24 31 24 19 18 17 14 12 8 5 8 11 12 15 12 8 8 7 7 7 8 8 7 10 14 16 16 26 48 54 37 26 28 30 30 32 34 35 35 36 36 37 38 36 36 47 58 57 62 63 59 67 68 64 71 70 68 72
29 29 30 29 29 29 29 28 29 33 36 36 35 32 29 25 17 11 10 11 13 13 13 13 12 14 11 15 12 14 38 38 20 19 17 15 13 8 6 7 9 12 13 14 12 8 7 6 6 6 7 8 10 13 16 17 18 25 33 34 24 22 28 27 31 37 35 32 34 36 38 39 38 38 40 45 58 65 67 65 63 69 69 66 70 69 67 70
29 29 29 29 29 28 28 29 30 35 38 37 35 31 26 20 12 9 11 12 13 13 13 12 13 12 12 14 10 21 43 31 15 19 15 11 10 6 6 8 10 11 14 15 11 7 7 7 5 7 11 12 15 17 16 13 16 22 21 20 19 23 29 24 29 37 32 29 32 36 40 40 40 42 45 49 63 70 68 66 62 64 69 70 70 69 69 70
29 28 28 28 28 28 27 28 31 36 40 38 34 28 21 15 10 10 11 12 13 12 12 12 12 13 13 11 13 32 39 18 12 16 11 8 6 6 8 9 10 10 13 15 9 7 7 6 7 12 16 16 17 17 16 13 13 20 20 20 20 22 27 24 27 30 27 30 35 38 39 39 45 51 51 55 65 66 63 63 61 64 70 71 70 71 71 70
28 27 27 27 27 27 27 27 30 37 41 37 31 24 17 11 10 11 12 12 12 11 12 12 12 13 12 11 23 40 30 11 11 11 7 7 6 7 8 9 10 10 12 12 8 7 6 7 11 16 17 16 17 15 15 15 14 20 22 21 22 21 24 24 25 26 27 33 36 35 36 38 47 53 54 59 62 60 59 60 62 66 68 69 70 72 72 70
27 26 26 26 26 26 26 26 29 36 39 35 29 21 14 11 11 11 11 12 11 11 12 12 12 13 12 13 24 32 20 9 10 8 6 7 6 8 8 10 12 11 11 9 7 7 6 10 16 22 25 18 15 16 15 16 17 20 23 22 22 23 24 24 25 27 28 31 33 34 37 40 44 49 56 62 62 58 58 63 64 64 67 71 72 72 72 69
27 25 25 25 25 25 25 25 28 34 36 33 28 19 13 12 12 11 11 11 11 12 12 12 13 11 12 16 18 17 11 9 9 7 6 7 8 9 9 12 12 11 10 7 7 7 6 11 17 25 30 19 13 17 16 18 21 21 22 22 23 23 23 24 27 30 30 30 32 37 40 40 40 48 60 63 62 58 59 65 64 61 67 70 71 74 72 68
29 26 24 23 24 24 24 23 27 31 31 30 24 15 13 12 11 11 10 10 10 11 11 12 12 10 18 25 22 16 9 9 10 8 8 9 11 10 11 12 10 9 8 7 7 7 7 10 15 18 19 15 14 17 16 19 21 19 21 22 23 24 23 25 28 30 30 31 32 38 44 41 36 47 65 68 61 57 60 66 62 59 62 64 65 66 66 63
31 27 23 23 23 23 23 22 26 30 27 23 17 12 12 11 11 10 10 11 10 11 11 11 10 12 23 27 21 14 9 9 10 9 10 10 11 11 11 10 9 9 8 7 7 7 7 8 12 14 15 14 15 17 18 18 19 19 22 24 24 24 25 27 29 30 32 32 30 35 46 45 40 50 66 69 60 55 62 69 66 63 61 60 60 58 58 56
33 29 24 22 22 22 22 21 24 29 25 16 11 10 11 10 10 10 10 10 10 11 10 11 10 13 25 26 18 12 8 9 10 10 10 10 11 10 10 9 8 9 8 7 7 7 9 9 11 15 15 14 16 19 18 17 18 19 22 27 31 27 29 32 31 30 30 31 29 32 50 55 50 54 60 62 59 57 65 71 71 69 60 55 57 58 55 50
36 32 25 22 22 22 21 21 23 27 24 14 9 9 9 10 10 9 10 10 11 10 9 12 11 18 33 24 11 10 8 9 10 9 11 10 10 10 9 9 8 9 9 9 8 9 10 11 12 13 14 14 17 18 18 22 25 25 25 30 37 37 34 32 31 28 27 31 28 32 60 69 55 54 54 53 57 62 68 70 72 71 64 57 56 59 57 50
37 34 26 22 21 21 21 20 21 25 24 15 9 9 9 9 10 9 10 10 11 11 12 15 14 25 36 19 6 10 10 9 10 10 11 10 10 9 8 9 9 9 9 9 9 11 13 11 11 15 18 17 16 16 19 26 30 33 32 30 36 42 40 34 32 30 29 31 28 36 64 68 52 52 53 48 51 62 69 70 72 72 69 63 56 56 56 52
39 35 29 23 21 21 20 19 20 23 24 17 9 9 9 9 10 9 10 13 16 17 19 21 23 29 26 12 7 10 11 9 9 9 9 10 9 8 9 9 10 9 9 10 10 12 15 17 20 24 23 19 19 22 26 30 32 33 38 43 43 41 39 35 31 28 30 30 26 38 60 60 47 45 48 46 49 60 69 70 68 69 69 64 57 56 56 53
40 37 32 26 21 20 19 18 19 22 24 20 12 9 10 9 10 10 12 15 17 21 25 26 29 30 16 7 8 8 9 10 8 8 9 9 8 8 9 10 10 9 10 10 10 13 15 22 30 29 25 30 39 40 31 30 36 34 43 60 52 39 41 39 32 26 28 30 29 38 52 52 44 38 40 44 50 59 67 69 65 65 64 59 56 59 60 54
42 40 35 29 22 19 19 17 18 21 23 22 16 11 11 11 11 11 13 17 17 20 27 23 20 21 12 7 9 8 8 8 7 7 8 8 8 9 9 10 10 9 12 12 11 14 14 19 30 30 31 43 64 73 51 35 41 38 49 69 51 37 47 44 37 31 27 33 36 39 44 45 42 38 37 38 45 55 61 63 61 60 58 55 55 57 61 62
38 39 37 33 24 19 18 17 17 20 21 22 20 16 17 17 13 13 15 18 19 21 24 17 12 14 12 8 8 7 7 6 7 7 8 8 7 9 9 11 9 10 21 23 20 22 17 16 26 34 38 41 58 80 64 43 46 39 49 74 59 41 44 39 40 36 30 37 41 42 45 46 44 40 38 36 40 50 56 57 53 52 52 53 58 58 64 70
32 35 36 35 27 20 17 16 16 18 20 22 21 20 23 24 19 18 20 19 16 16 15 12 11 13 10 8 6 6 6 6 7 7 8 8 8 10 9 11 11 11 21 23 24 27 19 19 27 35 43 39 37 49 47 42 45 32 31 52 49 40 39 37 39 35 35 42 43 46 48 47 49 46 45 42 40 46 52 53 51 53 52 53 59 61 70 76
31 30 33 34 30 21 16 16 14 17 20 20 22 26 27 26 22 20 19 17 12 9 8 8 9 8 7 7 6 6 7 7 7 6 8 8 8 10 10 12 13 13 17 20 25 25 18 20 26 29 34 34 30 30 35 41 40 29 30 36 31 33 38 35 34 35 46 53 44 43 47 48 50 47 47 46 43 46 52 55 55 56 57 56 57 58 66 73
33 31 31 32 31 23 17 15 13 16 20 17 23 30 25 21 23 20 17 16 12 7 7 7 6 7 6 6 6 6 7 7 6 5 8 8 8 12 13 13 13 15 18 19 21 20 18 20 24 23 22 26 29 26 36 43 36 34 42 41 32 31 34 31 31 35 45 55 49 44 48 51 49 45 47 46 44 46 50 56 57 56 57 57 57 57 61 67
30 33 31 30 32 25 17 14 13 16 19 20 28 29 18 16 20 20 19 18 13 7 8 7 7 7 6 6 6 6 7 7 6 6 7 8 10 12 13 16 16 14 16 19 21 20 19 22 22 20 18 22 24 23 33 36 29 31 33 34 34 30 31 32 33 34 35 45 50 45 47 52 47 44 46 43 43 45 43 47 51 53 56 57 59 63 66 70
28 29 31 30 30 26 17 13 13 15 19 23 26 21 15 16 18 18 19 20 15 9 8 8 8 8 6 7 7 6 7 7 6 7 5 7 12 11 12 19 18 13 13 18 21 19 22 26 20 17 19 22 21 19 23 22 22 28 27 33 37 31 34 36 37 41 36 37 41 39 45 52 48 45 46 41 41 42 40 42 44 46 51 54 57 62 65 68
26 25 30 30 30 27 17 12 13 17 21 21 18 15 16 18 20 21 21 20 15 9 8 8 8 8 7 7 7 7 7 6 6 6 5 6 10 11 11 14 14 14 16 17 16 13 20 24 17 17 22 22 21 20 21 21 22 24 24 33 40 33 30 33 40 43 34 31 37 41 53 60 54 51 50 43 40 42 41 43 43 43 46 50 55 59 62 64
24 22 25 28 31 26 16 14 16 18 20 17 16 17 17 18 22 25 24 24 17 8 8 8 7 7 7 7 7 7 6 6 5 4 6 5 6 9 10 9 10 14 17 16 13 11 15 20 16 18 22 19 19 20 21 22 22 25 26 28 33 32 26 27 36 41 42 44 39 41 59 65 55 51 50 45 42 44 42 43 45 44 45 50 55 59 61 61
17 17 19 26 30 25 19 18 19 20 19 17 18 17 17 20 25 25 25 27 21 10 8 8 8 7 7 7 6 6 7 6 5 4 5 6 6 7 9 10 9 12 13 11 10 9 14 20 17 15 19 20 20 20 19 19 23 31 33 26 23 24 25 27 35 44 53 52 36 34 54 64 58 54 50 44 44 44 42 43 44 43 46 50 52 55 56 57
9 10 14 23 27 27 32 29 24 22 19 17 17 17 18 23 28 28 31 34 22 9 8 8 8 8 7 7 5 6 9 7 5 5 4 6 6 7 9 10 9 10 10 10 13 10 10 19 20 16 21 25 22 20 17 18 23 26 28 30 25 23 26 28 33 40 42 40 35 34 43 56 60 54 45 42 46 47 45 45 44 44 49 51 50 51 51 54
4 5 10 20 24 30 40 44 39 27 18 16 16 18 20 25 29 27 33 36 18 6 9 8 7 8 6 6 5 6 8 6 6 6 5 5 6 7 8 8 9 9 6 10 16 11 5 13 18 16 19 23 20 18 16 16 20 19 17 21 20 19 24 26 31 35 35 40 43 36 37 53 59 48 40 41 46 50 50 47 45 45 47 49 51 50 48 49
3 4 9 16 24 31 39 49 48 30 17 16 16 20 23 27 29 25 32 35 16 5 9 7 6 8 6 6 5 5 6 6 7 6 4 6 6 7 8 7 7 8 6 7 10 9 5 7 11 13 14 16 15 15 15 14 17 15 12 19 30 31 27 27 31 33 39 47 46 38 40 54 59 49 42 45 48 50 50 46 42 43 44 44 47 46 43 42
2 4 7 13 23 35 41 44 40 27 19 20 21 23 24 28 31 30 37 33 14 7 8 7 7 7 7 6 6 6 6 6 6 6 5 6 6 6 6 6 5 6 7 6 6 7 7 5 7 11 12 11 11 14 15 15 15 15 20 36 51 52 46 46 44 43 53 52 41 36 35 42 54 51 43 44 45 44 47 48 45 44 43 41 40 39 38 37
3 4 8 13 22 36 43 35 26 24 26 26 25 23 23 27 28 33 35 22 9 9 8 7 8 6 7 7 7 7 6 7 6 6 7 6 7 7 7 7 7 7 8 7 7 6 6 6 6 8 9 8 11 13 13 14 13 19 32 48 61 66 67 69 64 62 66 54 36 31 29 36 53 51 40 38 37 37 43 48 46 43 40 38 36 34 34 35
4 4 8 14 20 31 37 28 23 29 32 30 27 22 25 30 29 32 29 14 9 11 8 8 8 6 7 7 7 8 6 7 7 6 7 7 8 8 7 8 8 10 11 10 9 7 6 7 6 6 7 7 9 11 11 11 12 20 32 49 70 77 64 56 55 58 61 49 33 30 34 40 47 44 36 34 34 35 37 38 41 41 38 37 35 34 34 36
5 6 12 18 25 31 30 27 32 36 34 30 26 22 27 34 31 27 24 16 13 11 7 7 7 6 8 7 7 7 6 7 7 7 7 7 8 7 7 7 6 8 12 11 10 9 9 8 6 7 6 5 8 10 14 14 14 20 26 36 52 56 49 43 42 47 52 45 28 24 34 44 47 42 35 33 34 34 33 32 35 37 37 37 35 34 36 38
5 9 17 23 30 29 26 32 39 38 34 28 24 25 34 40 31 21 23 19 12 9 7 7 7 6 7 7 7 7 7 8 6 7 8 7 9 9 7 7 6 7 10 11 11 11 14 11 8 8 7 7 8 10 15 15 16 20 21 25 31 32 37 39 34 36 49 51 35 24 33 49 56 46 33 31 32 30 32 32 33 34 35 35 34 35 40 42
9 17 26 37 40 29 23 31 38 39 38 29 24 29 37 38 29 21 22 16 8 9 8 6 8 8 7 7 7 6 7 9 7 6 8 7 9 10 9 7 6 6 8 12 12 11 14 13 7 7 7 6 8 10 11 14 20 20 16 23 30 26 25 27 24 26 41 54 44 33 38 45 46 38 28 30 30 29 31 31 33 36 34 35 38 40 43 44
22 29 34 42 42 34 31 32 36 42 39 28 27 31 29 26 23 21 20 14 9 11 10 9 9 8 8 8 7 6 6 8 8 7 8 9 10 10 8 7 6 6 7 13 15 13 17 17 8 6 8 6 7 9 7 11 20 22 20 24 25 17 14 22 28 28 43 55 41 36 48 44 39 38 30 30 33 31 31 32 34 36 35 38 42 42 43 45
39 40 36 34 29 32 36 31 33 39 34 28 31 31 22 17 17 15 15 13 11 11 13 14 11 8 10 9 8 8 7 9 8 8 10 11 11 11 8 7 6 6 6 10 14 14 16 19 11 6 8 7 6 8 7 8 13 19 22 20 19 17 13 21 29 32 50 60 41 36 47 48 50 49 35 33 38 34 31 33 34 35 38 41 41 41 44 47
61 54 40 31 25 28 31 28 30 31 27 29 35 32 23 18 15 12 12 12 11 12 14 16 13 10 12 12 10 8 7 10 8 10 15 14 13 13 9 8 7 6 6 6 13 14 11 17 16 8 8 7 6 8 8 9 9 14 16 12 17 24 21 24 31 31 42 51 45 39 41 48 56 48 36 38 40 36 34 34 35 36 39 41 41 41 44 47
71 60 38 24 23 27 28 28 28 25 24 27 31 31 25 20 15 11 13 13 11 13 15 16 14 13 13 13 11 8 7 10 8 11 16 16 21 20 11 8 8 7 7 6 11 14 12 17 17 10 8 8 8 8 10 13 10 9 10 8 12 19 19 24 28 28 35 40 46 52 48 49 50 39 34 38 36 35 37 36 37 38 39 40 40 40 41 43
63 55 37 22 22 28 28 28 26 23 26 27 25 24 21 19 16 12 13 13 12 14 15 16 15 13 13 13 12 9 7 9 9 10 12 14 22 22 11 8 9 7 7 5 8 11 12 16 17 13 9 7 9 8 9 14 13 12 14 13 12 15 19 23 22 26 39 40 42 54 55 46 38 30 28 32 34 35 35 36 39 38 39 39 39 41 41 41
53 48 37 25 23 28 28 26 24 22 22 22 21 20 18 18 17 15 14 12 12 13 14 15 15 13 13 13 13 11 8 8 9 11 13 13 15 16 10 8 9 8 7 7 10 13 15 16 17 18 16 12 12 10 8 12 14 16 19 18 18 21 23 25 25 30 44 44 36 44 56 49 34 29 28 29 33 33 30 34 38 37 38 38 39 41 41 41
47 41 35 30 29 30 26 23 20 18 18 18 18 19 18 17 17 16 14 13 13 12 11 14 16 16 14 12 12 14 12 9 10 11 13 12 12 13 11 9 9 9 11 13 13 15 18 17 16 19 20 18 18 14 9 11 12 12 13 12 15 22 23 24 29 32 34 31 24 33 54 52 32 30 34 29 29 31 30 32 35 37 38 38 40 41 40 42
40 34 33 36 34 28 24 23 19 15 15 15 13 14 16 18 19 17 14 13 14 13 13 15 19 20 16 10 12 17 15 12 12 13 13 11 10 10 10 8 8 10 14 19 20 18 19 18 18 21 18 14 16 15 10 8 9 9 10 10 11 14 17 20 24 29 29 26 24 36 56 52 32 34 39 30 28 32 32 32 33 37 40 40 41 40 40 42
37 35 33 35 34 27 26 26 22 16 14 14 13 15 18 20 20 18 15 14 13 13 14 15 18 20 17 13 13 16 17 16 13 13 13 12 10 9 9 7 9 11 13 18 21 19 19 21 22 25 26 25 27 27 20 12 11 12 12 15 16 12 13 17 18 23 29 29 29 41 56 50 33 36 39 30 29 33 34 35 36 39 43 42 41 41 41 42
44 42 34 31 32 29 28 25 21 17 14 13 17 23 27 25 20 18 17 14 11 11 15 14 14 15 14 13 13 16 22 22 15 14 16 15 11 9 9 8 9 11 15 23 23 15 18 24 23 24 33 39 39 35 30 22 18 19 16 15 16 12 14 20 19 23 31 30 31 40 50 46 33 33 38 33 31 34 36 38 38 39 41 41 41 44 43 42
48 42 33 32 34 31 28 23 21 22 21 19 21 26 31 29 21 18 17 16 12 11 14 14 12 12 12 13 14 16 20 17 13 14 17 16 12 9 9 9 8 15 26 34 29 16 17 27 26 25 30 33 30 26 25 23 22 23 20 17 15 12 16 20 21 28 32 30 37 42 43 44 39 35 38 38 35 37 39 41 40 39 39 40 43 44 43 42
51 46 34 35 37 33 28 23 21 26 27 25 22 22 28 29 25 22 20 18 15 12 14 14 11 13 14 15 17 17 15 14 14 13 11 13 12 9 9 8 11 26 33 26 20 17 18 25 28 27 26 25 22 20 19 20 21 20 19 23 22 17 18 22 24 29 29 29 40 46 43 46 42 34 36 40 39 40 41 40 39 39 39 41 43 42 42 43
47 43 31 36 42 36 29 23 20 23 24 25 22 21 27 29 28 28 23 19 17 15 18 19 16 16 15 15 18 18 16 17 17 13 11 12 14 12 11 8 12 28 29 15 15 22 20 24 31 30 29 26 20 17 16 15 17 16 15 21 23 19 21 24 23 24 25 27 34 39 41 42 37 32 35 38 39 40 41 38 36 37 39 40 41 41 41 42
42 37 31 41 47 37 29 23 19 21 23 25 25 23 26 28 28 26 21 20 22 19 19 23 22 18 14 13 16 19 20 20 20 20 14 12 16 15 14 13 11 17 18 14 22 28 22 26 32 29 29 27 19 16 16 13 14 16 14 15 17 18 20 22 21 21 24 26 25 28 33 33 28 30 34 35 37 38 37 36 34 36 40 40 39 39 39 40
51 50 51 59 56 41 35 31 25 23 23 24 27 25 24 24 24 23 19 21 26 23 20 22 22 19 15 14 15 18 19 17 20 24 18 17 24 21 15 17 17 14 14 16 26 33 30 31 32 26 25 24 18 16 16 14 13 15 14 14 15 17 19 21 22 23 25 27 26 28 32 29 25 28 33 36 38 38 38 37 35 37 40 40 39 38 37 38
56 56 56 63 62 48 40 37 32 29 25 23 25 25 25 24 22 22 21 18 20 22 21 20 20 19 17 16 15 16 17 14 15 18 16 17 26 26 19 20 20 20 22 23 28 33 33 31 29 26 25 23 19 17 16 16 15 15 16 17 17 19 20 21 23 25 27 29 30 30 32 32 30 32 37 40 40 40 41 40 38 37 38 38 37 35 35 37
64 60 53 59 64 54 42 36 35 35 30 24 22 23 26 26 20 21 27 23 16 16 19 19 21 21 20 20 18 17 18 16 13 15 14 12 16 20 21 19 17 20 25 26 25 26 27 26 25 25 24 22 20 20 20 21 21 22 24 22 19 20 20 20 23 26 27 27 28 31 34 35 34 36 41 44 43 42 42 40 38 38 37 36 34 32 33 36
Wind_Speed
21 22 22 23 24 25 26 27 26 24 21 18 14 11 9 8 8 8 8 9 11 11 11 11 11 12 12 13 14 15 15 12 10 11 11 6 2 5 2 3 6 8 9 9 11 11 10 10 12 12 12 9 4 1 2 3 7 8 4 5 2 2 3 4 2 6 3 7 10 7 6 5 5 6 7 8 12 13 12 13 12 13 14 13 9 7 8 10
22 23 24 25 26 26 28 28 27 24 20 17 14 11 8 7 7 7 7 9 10 11 11 11 11 12 12 14 14 15 15 12 13 13 8 5 3 3 0 4 10 9 8 10 14 13 12 9 10 10 9 5 1 2 3 4 9 6 3 4 2 2 7 6 5 6 6 9 10 8 7 8 8 7 7 8 12 12 12 11 11 13 13 13 11 8 9 9
23 24 25 26 27 28 29 29 27 25 21 16 13 10 7 6 6 6 8 9 10 10 10 10 11 12 13 14 14 15 13 10 13 9 5 6 3 1 2 7 11 9 7 12 16 12 8 6 9 10 7 4 1 6 5 4 6 4 3 2 3 3 9 10 8 8 9 10 9 10 10 10 9 6 6 10 13 13 12 10 10 12 11 11 11 9 10 10
24 26 27 27 27 29 30 29 28 25 21 16 12 9 6 5 5 6 7 8 9 9 9 10 11 12 13 14 14 13 9 9 6 5 7 6 3 3 6 9 10 8 8 14 15 11 9 3 8 10 4 1 4 6 3 3 4 3 2 2 2 5 8 10 14 12 10 9 9 10 10 10 9 7 6 8 10 10 11 10 11 12 11 11 10 8 10 10
25 27 28 28 28 29 30 30 28 24 21 15 11 8 5 4 4 6 7 8 9 9 9 10 11 13 13 14 14 11 7 5 3 8 7 5 4 7 8 9 9 7 8 14 11 6 6 6 8 3 4 3 5 4 3 6 4 5 4 6 7 7 8 10 15 15 9 9 10 10 10 10 9 9 11 11 10 8 9 10 11 12 11 9 8 8 10 10
26 28 29 29 29 30 31 30 28 25 20 14 9 7 4 3 4 6 7 7 8 8 9 10 12 14 13 14 13 7 6 1 5 6 7 7 7 8 9 9 7 5 8 13 11 6 6 9 6 4 4 3 4 4 6 9 4 4 7 8 10 9 10 10 12 13 10 11 11 9 10 10 10 11 13 14 12 9 9 10 11 13 11 9 8 8 8 9
27 29 30 30 30 31 31 31 29 25 19 12 8 5 4 3 4 6 6 7 7 8 9 11 12 14 14 15 10 6 8 2 6 7 9 10 9 9 9 8 6 7 9 12 11 7 7 7 2 8 2 2 5 6 7 9 7 7 8 9 11 11 11 11 11 13 13 14 11 9 10 10 11 11 11 13 12 10 10 11 12 13 11 9 8 7 7 9
28 29 30 31 31 31 32 31 29 24 18 11 6 5 3 3 4 5 6 6 7 8 10 11 12 13 14 12 7 7 5 6 10 9 10 10 8 8 7 6 8 8 10 11 9 8 8 1 13 11 2 3 5 7 5 6 8 8 8 9 10 11 12 11 13 13 12 12 10 10 11 12 12 11 12 12 11 10 10 11 11 11 10 8 7 6 6 7
29 30 31 31 32 32 32 31 29 24 17 11 6 5 3 3 4 5 6 6 7 9 10 12 12 13 13 9 7 5 5 11 10 10 10 9 7 7 5 7 9 7 10 9 8 10 8 5 17 8 5 4 4 5 3 4 7 7 9 10 10 11 11 11 13 13 10 9 8 10 12 12 10 10 11 12 10 9 9 10 9 9 8 7 6 4 4 6
30 30 31 32 32 32 32 31 28 23 17 12 7 4 3 4 4 5 6 6 8 9 10 12 11 12 11 7 8 2 9 12 10 9 9 7 7 6 6 8 7 8 10 8 8 9 5 4 12 14 10 2 3 5 6 6 7 9 10 11 11 11 10 11 13 12 10 8 8 10 11 11 8 7 8 9 8 9 9 9 9 8 8 7 6 5 5 7
30 31 31 32 33 32 32 31 28 23 17 12 7 3 3 3 4 5 6 7 8 9 11 12 12 12 9 9 9 1 10 11 10 10 8 7 7 7 7 7 6 10 11 6 7 7 1 3 7 7 4 4 5 7 9 8 9 10 9 10 12 11 10 12 11 10 8 7 9 11 12 12 10 9 8 8 7 9 9 8 9 7 6 7 6 6 7 8
30 31 32 32 33 32 32 31 27 22 17 12 7 4 3 4 5 6 7 8 9 10 11 12 13 10 8 10 6 6 11 10 10 10 9 7 8 8 7 7 7 10 13 7 4 4 2 6 9 8 2 4 5 6 8 8 8 8 8 9 11 9 8 9 6 6 7 7 8 8 10 11 9 9 10 10 8 9 9 8 8 6 5 6 7 7 7 8
30 31 31 32 33 33 32 30 27 22 17 12 7 5 4 4 6 7 8 9 9 11 12 14 13 8 7 5 6 10 8 9 9 7 9 8 8 8 7 8 7 8 14 10 3 4 10 7 6 8 1 1 5 6 7 8 8 7 7 6 6 4 5 7 3 2 6 5 3 4 5 7 7 10 11 10 10 9 9 8 6 5 4 5 6 7 7 8
29 30 31 31 33 33 32 30 27 23 17 11 7 5 5 5 7 8 9 10 10 12 13 15 12 6 6 1 9 7 4 6 7 6 8 8 8 8 6 5 6 9 10 4 3 12 11 3 2 10 6 5 7 8 7 6 5 6 4 3 2 3 5 7 3 2 4 6 4 7 6 3 6 11 12 9 10 10 9 7 6 4 3 3 4 6 7 8
29 30 31 31 32 32 31 29 27 24 17 11 7 6 6 7 8 9 10 11 11 13 14 16 11 5 4 3 7 7 6 6 8 9 9 8 9 8 6 6 7 7 3 4 3 10 13 5 7 11 7 10 9 6 4 3 1 2 1 1 1 3 6 7 5 2 4 6 5 7 6 4 5 11 13 10 11 12 9 7 6 5 3 3 3 6 6 7
30 30 31 31 32 32 31 28 26 23 18 12 8 7 8 9 10 10 12 12 12 12 11 10 9 12 5 5 8 9 8 9 8 9 9 9 11 8 9 6 6 5 4 6 3 8 22 21 10 4 7 10 9 5 2 1 3 2 1 0 1 4 5 4 3 5 6 5 6 7 6 6 7 10 13 12 13 13 9 6 7 6 5 4 4 5 4 4
30 30 31 31 31 31 30 27 25 22 18 13 10 9 9 11 12 12 13 12 12 11 9 10 12 13 2 7 9 9 9 8 7 8 8 10 9 8 11 7 7 6 3 2 3 7 13 16 7 2 7 4 3 5 1 2 3 4 3 1 2 6 5 3 4 7 8 8 11 11 8 9 10 10 12 12 13 13 10 8 7 6 5 5 5 4 2 3
30 31 31 31 30 30 29 27 24 22 19 14 11 11 11 13 14 13 12 10 8 8 10 12 13 8 4 9 10 7 9 8 6 8 8 8 5 9 10 5 3 5 7 2 3 6 4 8 7 4 5 2 3 3 1 1 2 4 6 4 3 6 5 6 6 4 8 11 12 10 9 12 11 10 10 12 13 12 10 8 7 7 7 6 6 3 2 4
30 31 31 31 31 30 29 27 23 22 20 14 11 11 11 13 13 10 9 8 3 5 7 6 7 4 4 12 9 5 8 8 6 9 9 7 9 10 9 7 6 4 5 2 5 7 1 6 6 4 3 3 4 7 7 6 8 7 6 8 6 7 6 8 8 5 9 11 11 10 9 10 11 10 11 10 11 12 11 9 7 8 7 6 6 3 4 6
30 31 32 31 31 29 28 26 22 21 20 16 14 12 8 6 5 4 6 9 7 9 9 8 7 7 6 11 8 8 6 8 9 9 10 8 10 11 6 10 6 2 2 2 5 2 3 0 2 1 4 9 12 15 11 9 9 4 6 9 8 8 8 9 8 7 10 8 8 11 10 10 10 10 10 8 9 11 11 10 8 8 7 5 6 6 6 7
31 31 31 31 31 30 27 26 22 19 19 18 16 10 3 3 3 2 0 7 7 10 12 7 8 6 9 8 7 11 6 8 10 7 10 9 7 8 7 7 3 4 8 5 0 5 3 1 1 0 5 13 13 12 8 6 8 6 6 7 7 8 8 10 9 7 9 7 6 10 11 10 9 9 10 8 8 10 10 11 10 9 8 6 7 8 8 8
31 31 32 31 31 30 27 25 20 17 17 16 13 9 4 8 6 6 3 7 6 9 11 6 7 3 10 10 6 11 8 7 9 9 9 7 4 3 5 8 6 1 10 9 3 5 2 2 4 2 5 8 6 5 8 7 7 7 6 6 6 7 8 9 11 9 5 5 7 9 11 10 9 9 10 9 9 10 10 11 10 10 9 8 7 8 8 8
30 31 32 31 32 30 26 23 18 16 16 16 11 4 7 10 8 8 4 7 4 8 8 4 7 4 10 9 4 8 8 6 8 9 9 6 9 7 7 9 8 2 4 8 6 4 2 4 5 5 1 2 5 4 5 4 3 5 6 6 5 7 6 6 10 7 2 4 9 11 10 8 8 9 9 9 10 10 11 12 11 10 10 10 9 9 9 9
30 31 30 30 32 29 26 22 15 12 13 14 7 6 8 9 10 11 5 6 4 8 9 7 8 7 8 6 6 10 8 6 7 8 10 8 8 12 11 7 6 6 7 11 8 1 7 11 7 6 5 3 4 4 2 1 3 4 6 6 5 7 6 7 11 8 6 7 10 9 8 6 6 8 7 8 9 9 10 11 11 11 11 11 11 11 10 9
29 30 30 30 30 30 27 18 11 11 14 12 4 6 8 10 11 11 5 5 4 5 9 12 10 6 9 8 11 12 6 5 7 6 12 8 3 7 6 3 2 3 9 16 11 2 8 15 9 9 12 9 5 5 1 2 1 4 7 6 8 10 8 11 14 8 3 5 5 2 3 5 5 7 7 6 8 9 9 9 11 11 11 11 11 11 11 9
28 28 29 28 28 32 24 9 9 18 17 9 5 7 9 10 11 9 3 5 3 4 7 12 8 5 10 9 11 10 6 6 7 5 10 3 1 2 4 3 4 4 9 13 7 3 10 18 12 8 8 6 2 5 1 2 1 2 8 12 10 10 10 11 11 6 2 2 3 1 1 4 5 6 7 7 9 9 8 10 10 10 10 10 9 10 10 10
27 26 28 26 25 30 20 8 16 20 11 7 10 8 9 10 10 6 1 4 2 5 7 9 6 8 12 9 11 9 4 6 5 2 6 4 3 5 5 5 5 6 9 7 1 3 10 20 16 8 8 6 4 1 3 2 2 2 11 17 13 11 11 9 8 4 2 1 4 5 3 4 4 5 7 8 10 10 9 10 10 9 11 10 10 11 11 11
25 24 27 25 23 24 17 14 19 16 10 12 12 10 9 10 10 3 3 2 3 4 5 6 3 6 11 10 14 10 2 7 6 5 8 8 9 7 3 4 5 6 7 2 2 4 6 12 16 12 9 5 5 3 4 4 2 4 10 13 11 11 10 7 5 4 1 1 2 5 5 5 4 5 6 6 9 9 9 10 10 10 11 12 12 12 12 13
24 22 24 26 22 16 15 16 15 13 13 14 13 11 11 11 8 3 4 2 3 3 2 4 3 5 8 10 14 12 3 5 6 7 8 7 8 7 6 3 6 6 6 2 1 6 5 3 10 13 6 4 6 8 9 5 1 3 7 7 8 9 7 5 2 3 3 1 2 6 6 3 4 4 4 5 6 8 8 8 9 10 10 11 12 12 12 12
22 21 22 25 21 15 16 17 15 12 12 11 12 13 11 9 4 5 5 2 5 5 4 5 7 9 9 9 11 10 6 7 6 8 8 7 9 8 7 5 5 3 6 3 1 6 5 2 3 10 6 4 7 12 14 11 7 2 6 10 12 10 7 5 3 3 1 2 2 7 6 3 4 4 3 4 5 7 8 7 9 11 11 11 11 11 12 11
22 19 20 23 21 17 16 12 9 9 9 10 12 11 9 5 4 5 3 2 4 7 8 7 10 12 11 11 10 9 9 9 7 7 7 6 8 8 7 5 3 3 4 2 3 6 7 4 2 6 6 6 9 11 11 11 9 6 9 8 7 4 4 3 2 2 1 2 3 7 6 3 2 3 4 6 7 8 9 8 10 11 11 11 10 10 11 10
21 18 19 20 21 19 16 12 11 13 10 11 11 7 6 4 5 5 4 3 3 7 7 8 11 12 12 12 10 10 10 9 7 7 7 6 6 5 5 4 2 2 2 1 2 5 6 3 2 5 3 6 6 7 6 6 7 8 8 5 4 0 1 1 2 1 1 3 4 9 8 5 4 5 7 8 9 9 9 9 10 11 11 11 10 10 10 10
21 19 18 17 18 20 19 15 14 12 9 9 6 4 4 5 6 6 6 5 3 8 7 8 11 13 13 12 10 10 8 7 7 8 8 6 5 5 5 6 5 3 1 2 3 4 4 2 2 5 4 5 5 2 2 2 3 6 6 4 2 2 1 1 2 2 3 4 4 11 9 5 6 5 7 9 9 9 9 10 10 11 11 11 11 10 10 10
21 18 17 14 16 20 17 12 11 9 7 6 4 4 6 6 6 7 7 7 5 8 9 8 11 13 14 11 10 10 8 6 8 8 8 7 5 5 6 6 7 4 2 3 3 2 1 2 5 4 3 5 5 3 4 2 1 3 5 5 3 2 1 0 1 2 4 1 1 6 6 5 5 5 7 9 10 10 9 10 10 10 10 10 10 10 10 10
20 16 16 14 15 16 13 11 11 8 6 5 5 5 7 6 7 7 6 7 7 7 10 10 10 11 12 11 11 12 8 6 8 9 7 6 4 4 6 4 5 6 2 2 1 1 4 2 6 3 2 3 5 6 8 6 3 1 1 4 3 2 3 1 2 3 5 2 1 3 4 5 6 7 9 9 10 11 10 11 11 10 10 10 9 9 9 9
19 15 14 14 14 12 10 11 10 8 7 5 5 7 7 7 7 6 5 7 7 7 9 9 10 10 10 9 10 12 10 5 8 9 6 6 4 5 8 5 5 8 3 3 0 2 3 3 5 6 3 6 2 2 4 4 4 0 2 2 5 5 4 1 1 2 5 3 2 4 6 5 6 7 8 9 9 10 11 11 11 11 11 10 8 8 8 8
20 15 12 15 16 12 11 11 10 9 7 5 6 7 7 8 10 8 6 6 7 8 8 7 8 9 8 8 8 10 12 7 9 7 3 4 5 4 8 4 5 7 4 4 2 3 1 3 3 5 7 6 1 3 1 6 7 3 2 4 5 7 5 2 1 1 3 2 2 5 8 7 5 4 7 10 10 10 11 12 11 10 10 9 8 9 10 9
18 12 11 17 17 11 13 11 10 9 6 5 7 8 8 9 10 9 7 7 8 9 8 5 6 7 7 7 8 11 12 7 7 6 1 0 0 6 10 4 5 5 4 5 3 2 3 1 5 5 5 6 5 3 4 8 9 7 4 4 4 3 2 1 1 2 1 3 1 3 7 6 3 4 8 11 11 11 11 11 11 10 10 9 9 10 11 10
13 7 7 12 13 10 12 11 9 7 6 7 7 7 8 11 11 10 9 8 8 8 7 6 6 6 5 4 6 11 11 7 7 6 4 4 1 9 11 3 5 5 5 4 4 3 4 2 3 4 3 4 6 5 5 6 9 8 5 4 4 2 1 1 3 1 2 1 1 0 3 4 4 6 11 13 12 12 12 11 10 10 10 9 9 9 9 8
9 5 4 7 11 10 10 9 7 7 6 7 7 7 8 10 11 9 8 7 6 6 6 7 8 7 4 6 7 8 9 9 7 5 4 3 5 11 10 3 4 7 5 6 4 1 3 2 2 5 5 3 3 4 2 1 1 3 4 3 1 1 2 1 2 1 2 2 1 2 2 3 3 5 9 12 12 12 13 12 10 10 10 10 9 8 8 7
7 5 4 7 11 11 10 7 6 6 7 7 9 9 9 9 9 8 7 7 6 7 5 5 7 6 6 9 8 4 6 8 6 7 5 4 6 7 6 4 3 3 4 5 2 2 1 2 1 5 4 1 4 2 6 4 3 4 4 2 1 1 2 1 1 3 2 2 1 2 4 2 1 2 6 10 12 12 13 12 10 10 11 10 9 9 8 8
6 5 4 8 11 11 9 6 6 7 6 7 9 10 9 8 9 9 9 8 8 8 6 4 5 6 8 9 4 5 7 6 6 7 5 7 8 6 3 4 5 2 4 2 4 5 4 1 3 4 2 2 9 7 3 5 6 7 5 2 1 2 1 1 2 2 1 2 3 1 5 1 1 1 5 10 11 11 13 12 11 11 10 10 11 10 9 9
6 4 4 9 11 10 8 6 7 7 7 9 12 12 9 7 8 9 9 9 8 7 7 7 5 7 9 7 5 7 9 6 8 9 7 7 7 5 4 5 7 2 7 4 5 3 2 2 2 3 3 2 9 12 5 3 4 7 4 3 4 1 3 1 1 1 2 3 4 2 4 0 1 5 4 8 10 10 12 11 11 12 10 9 11 10 10 10
5 6 4 10 13 11 7 6 7 7 8 11 13 11 8 8 10 10 9 10 9 7 8 10 9 9 7 5 5 6 6 4 5 9 7 5 5 5 4 6 6 2 5 5 1 0 1 3 2 3 3 3 7 10 5 3 2 4 2 2 5 4 1 2 2 0 2 5 5 4 3 1 2 3 3 8 11 11 12 12 12 12 10 9 9 9 10 9
5 5 4 7 12 10 7 7 8 7 9 12 11 9 8 8 10 11 11 10 10 9 8 8 10 10 8 7 8 5 5 7 4 5 7 5 6 7 6 6 6 2 6 7 3 1 1 1 2 3 1 1 2 4 5 3 3 5 5 3 4 3 4 3 2 1 2 5 5 3 3 3 4 6 7 9 11 12 12 13 12 11 10 10 9 9 9 8
3 4 4 5 8 7 7 8 9 7 7 9 8 8 9 8 9 11 11 10 11 11 8 8 11 12 11 10 9 9 9 9 6 4 7 6 5 6 8 7 4 5 10 7 2 2 1 2 1 2 1 3 4 3 6 6 4 5 6 7 5 1 5 4 3 2 2 2 3 4 5 6 6 7 9 10 12 12 12 13 13 11 10 10 10 10 9 8
3 4 4 3 4 6 7 9 9 7 8 8 6 8 11 11 9 9 9 9 9 10 9 8 11 11 11 10 9 9 10 10 9 8 6 5 4 4 8 7 4 10 9 4 2 2 2 2 2 3 2 6 7 8 10 9 9 9 3 5 8 2 6 3 3 2 1 1 0 4 7 8 8 8 10 11 11 12 13 13 12 11 11 11 11 11 10 9
4 5 4 1 2 6 7 8 10 10 11 9 5 6 11 12 10 9 9 10 9 9 8 7 10 12 11 11 9 7 9 9 9 8 7 6 6 6 6 6 6 11 8 7 6 1 4 1 4 3 4 10 11 11 11 9 10 11 4 1 6 4 3 2 2 1 1 3 2 6 9 6 6 8 10 12 12 13 13 12 11 12 12 12 12 11 11 10
4 6 4 4 4 6 7 9 12 13 12 10 6 7 11 14 14 12 10 9 9 9 9 7 9 11 12 12 10 7 8 7 5 6 8 6 4 5 6 6 7 13 9 5 5 2 3 2 2 2 5 11 13 10 11 11 9 9 8 6 6 4 2 3 1 3 3 4 4 1 1 3 3 7 10 10 11 12 11 11 12 13 14 13 12 11 11 10
4 4 4 5 6 7 7 8 9 10 10 9 7 8 10 13 15 13 11 10 9 9 11 11 10 11 13 13 11 9 9 8 5 5 6 3 1 3 4 3 3 7 8 5 6 3 2 1 3 4 5 9 11 10 11 10 9 8 8 7 6 3 1 0 1 4 3 2 4 4 3 5 1 7 11 11 11 12 11 11 12 13 14 13 12 11 11 11
7 7 5 4 5 5 6 6 6 7 8 8 8 8 10 12 14 13 11 12 12 10 10 12 12 11 12 12 12 10 8 10 10 6 6 4 2 2 5 0 3 3 1 2 5 2 1 2 4 5 4 6 8 8 7 6 8 8 6 5 5 3 2 2 2 2 2 2 3 3 2 0 5 9 11 12 13 13 13 13 12 11 13 13 12 11 11 11
9 8 5 4 5 6 6 6 6 7 7 6 8 10 10 11 13 13 8 8 13 14 13 12 11 8 9 12 11 6 4 9 8 2 5 6 3 3 4 3 3 3 3 3 3 2 2 3 4 4 4 5 4 3 4 5 6 5 3 5 6 4 3 2 1 4 2 0 2 2 1 4 6 8 12 13 14 14 13 13 11 11 13 13 11 11 11 11
Wind_Direction
352 351 352 355 354 352 350 348 347 344 337 334 332 323 309 299 285 274 263 256 262 267 275 284 294 303 310 316 320 324 320 305 280 248 228 222 101 100 144 207 183 181 192 220 244 217 189 208 216 214 221 226 225 219 19 347 27 46 16 14 40 108 137 214 57 86 128 84 81 89 107 98 74 74 81 79 73 77 76 71 74 75 80 90 88 59 49 48
352 351 352 355 355 353 350 349 348 344 338 334 333 325 312 299 284 270 256 252 258 264 274 284 293 300 306 312 319 325 323 300 268 251 217 173 124 107 143 177 174 193 219 254 256 216 190 196 206 213 220 232 218 72 27 28 49 63 64 32 265 139 117 135 90 99 105 87 98 99 91 76 58 67 75 73 66 64 68 65 69 73 75 89 94 78 68 63
352 351 352 355 356 354 351 350 347 343 339 334 332 326 315 300 284 264 250 250 256 263 273 282 291 298 304 309 318 328 328 292 260 244 165 136 122 122 210 189 192 213 231 266 274 262 250 196 186 217 229 245 344 46 41 62 66 80 121 147 235 72 92 109 98 81 73 84 96 83 78 77 67 65 84 86 71 58 57 53 56 65 64 74 81 76 75 73
352 351 352 354 356 355 353 351 348 343 338 335 333 327 318 302 278 254 247 248 254 263 273 282 291 296 302 309 319 331 315 272 248 157 144 130 121 188 203 196 206 224 246 277 286 291 293 228 203 231 233 298 29 45 57 114 113 128 133 118 99 74 77 93 101 91 80 93 89 82 85 80 72 60 66 82 74 60 55 49 50 62 62 65 71 69 70 69
353 352 352 354 356 355 354 353 350 344 338 336 334 330 323 300 268 249 246 247 255 264 274 282 290 294 301 310 321 330 295 262 118 124 139 132 164 192 196 200 213 232 264 286 290 271 273 256 250 282 35 8 41 33 22 71 115 141 79 59 74 81 75 74 95 109 118 111 90 85 84 76 71 58 56 64 69 61 55 56 54 63 68 66 67 66 66 65
353 353 352 354 355 356 356 355 353 347 340 337 336 333 319 291 261 250 247 248 257 264 275 283 289 294 303 314 326 312 268 315 105 137 133 145 180 185 193 202 210 242 269 283 279 241 237 251 253 71 44 324 79 59 26 45 50 99 75 64 67 70 79 74 84 100 102 90 84 88 89 86 83 71 64 65 69 65 61 65 61 68 76 73 68 62 62 64
354 353 353 353 355 357 357 356 355 350 344 341 341 332 314 287 263 255 253 254 260 268 277 284 289 298 311 319 323 255 246 80 110 134 134 160 180 182 197 203 211 247 268 278 273 241 235 246 74 83 92 297 83 74 51 55 49 71 80 72 71 68 73 78 79 83 84 85 86 92 92 82 80 79 73 72 72 69 67 69 69 77 81 76 70 59 58 65
355 354 353 352 354 357 357 358 356 353 349 346 342 327 313 284 268 258 257 256 261 272 278 286 296 306 318 322 304 247 223 114 119 133 149 169 175 182 195 206 222 251 270 276 281 277 263 131 69 60 355 317 53 74 82 83 67 71 86 80 81 78 74 79 81 76 77 84 86 85 82 75 77 80 75 74 73 69 70 72 73 83 84 78 75 59 58 70
355 354 353 351 353 356 358 359 357 354 353 349 342 327 313 284 270 256 257 254 263 276 282 292 302 307 315 313 278 265 117 118 133 146 160 171 173 186 204 227 228 241 263 270 284 284 275 92 90 103 239 292 34 76 85 78 76 77 87 85 80 78 78 80 81 78 74 78 85 84 83 82 87 85 72 72 78 78 74 76 79 86 86 85 87 74 72 78
355 355 353 351 352 355 358 359 357 355 354 352 344 331 311 281 265 258 260 261 269 279 288 296 302 308 311 285 270 285 114 127 143 154 166 173 175 194 222 245 248 244 258 263 259 264 275 91 121 161 189 175 48 64 58 66 85 82 82 85 79 78 83 81 80 84 81 76 78 77 77 78 80 79 74 78 86 88 80 75 77 81 82 84 91 93 89 80
355 355 354 352 351 354 357 358 356 354 355 355 350 335 299 272 265 264 265 269 277 286 292 295 298 305 300 270 276 175 142 149 151 163 177 182 190 213 226 244 261 250 254 251 246 263 264 107 117 133 149 133 109 71 71 86 95 92 94 94 83 76 77 77 77 86 86 81 78 76 78 73 66 69 87 105 97 88 86 73 68 69 73 79 79 80 80 79
356 356 354 352 351 354 356 357 356 353 354 355 352 333 291 277 272 267 270 279 288 293 294 294 296 304 296 274 261 151 159 164 159 171 183 194 208 224 239 251 256 256 266 273 256 255 97 78 82 95 132 158 117 81 90 93 90 101 106 93 75 63 78 85 86 105 102 89 78 72 71 63 61 77 94 111 105 90 87 74 64 57 58 73 75 71 69 73
356 356 354 352 351 353 355 355 355 353 352 353 351 332 299 282 273 273 281 286 294 296 295 294 295 297 288 284 131 139 155 160 165 175 183 202 222 222 235 253 251 257 271 279 258 97 71 54 90 108 115 81 94 102 96 68 50 65 83 95 83 64 91 91 79 121 100 80 43 42 64 51 60 93 103 113 117 105 90 84 77 62 52 62 72 82 77 73
355 355 354 352 350 351 353 353 353 351 349 347 344 324 300 284 282 286 286 291 297 296 295 293 292 282 265 142 116 140 147 150 170 190 196 203 222 215 209 227 229 244 263 287 91 88 75 286 164 84 28 11 92 117 96 59 33 43 74 141 125 97 102 99 127 231 89 95 87 72 82 50 58 104 121 122 116 109 99 100 97 82 61 42 65 89 88 83
353 354 353 352 350 350 352 352 350 348 346 341 335 316 300 289 290 292 290 298 300 296 300 295 281 243 231 134 129 149 161 184 187 193 196 198 212 196 164 181 212 241 240 103 120 114 100 42 30 69 44 25 55 95 92 86 88 36 93 209 314 100 98 106 151 203 87 113 108 78 91 97 78 103 120 118 101 100 101 104 109 107 95 60 64 81 84 96
351 352 352 351 349 348 349 351 347 344 342 333 319 306 297 293 294 293 295 301 303 301 300 290 241 212 216 98 134 159 188 211 194 179 176 203 219 164 139 179 208 215 167 151 186 132 107 84 53 45 55 44 40 38 36 132 178 195 137 168 197 130 101 88 76 61 82 107 88 80 94 100 89 88 101 107 102 105 108 111 115 110 101 85 73 81 83 95
350 350 351 350 347 346 347 348 345 340 338 331 314 303 300 300 296 295 299 300 306 299 272 274 257 229 193 100 157 190 197 192 176 162 164 216 226 138 143 188 199 175 112 95 110 107 105 96 100 61 54 67 58 42 1 226 189 167 124 79 115 108 106 106 62 57 85 94 86 92 93 83 82 82 89 99 103 110 114 116 120 110 106 103 81 83 79 58
350 348 349 349 347 345 344 345 344 337 334 330 315 306 308 307 296 294 302 300 307 293 262 264 265 249 143 159 192 190 166 161 166 157 163 216 188 136 166 176 170 123 74 42 86 78 88 88 96 96 72 100 102 92 207 206 241 201 135 130 119 111 112 104 99 91 94 95 92 88 87 85 81 74 72 79 90 101 108 106 110 106 102 101 90 66 30 64
349 348 348 347 346 344 342 341 340 334 331 331 324 313 310 307 291 281 276 264 232 224 234 214 235 271 145 181 190 139 138 142 166 166 166 192 149 153 178 115 75 59 84 115 44 38 79 106 102 121 125 153 172 193 197 173 221 239 126 123 124 115 99 94 117 128 87 84 94 90 85 88 81 71 64 65 79 92 102 102 97 95 91 89 95 78 46 72
347 347 346 346 345 343 341 338 334 332 327 323 327 315 296 297 274 231 216 235 215 207 212 165 217 263 160 176 175 133 131 160 189 171 155 174 158 162 149 93 103 143 107 59 47 28 251 124 117 134 172 184 203 210 198 177 199 226 88 105 107 106 105 113 133 124 87 74 90 98 92 86 82 83 80 70 76 87 95 100 96 95 97 94 98 97 81 79
343 345 345 345 343 341 340 335 328 325 320 316 318 300 290 19 298 326 101 257 245 230 240 198 229 257 150 169 169 148 161 196 201 157 150 188 179 159 119 101 194 161 122 112 97 216 213 33 113 117 195 182 198 205 173 162 177 154 109 103 103 104 104 113 112 97 104 109 101 97 95 93 87 91 97 95 90 91 93 97 102 103 103 101 94 88 77 72
338 340 342 344 342 340 338 332 324 317 317 310 289 260 332 16 339 332 345 283 254 225 257 213 205 243 158 184 185 169 192 203 190 148 159 190 130 131 132 149 219 109 118 141 196 241 198 98 136 177 220 168 154 157 138 161 178 140 111 100 98 97 93 104 98 81 86 111 115 109 99 99 98 96 102 104 95 92 94 98 106 108 104 103 95 84 78 78
336 336 339 343 342 338 334 331 321 309 309 299 282 270 349 357 341 326 292 276 253 203 249 205 186 202 166 182 190 202 215 192 185 151 162 191 134 162 208 187 206 190 146 174 185 225 161 135 153 147 191 112 102 114 133 153 124 81 92 96 102 117 116 113 103 107 173 123 115 113 99 96 105 104 96 93 95 93 93 94 98 100 99 102 101 98 99 98
334 333 335 340 340 337 333 327 307 292 292 288 310 28 357 348 344 332 305 271 252 197 210 193 211 221 174 176 174 211 231 189 200 152 156 216 165 168 210 212 195 177 195 211 213 234 117 140 174 161 150 159 119 103 100 140 114 104 109 107 136 153 148 119 115 144 180 132 119 112 97 91 97 102 97 96 103 97 94 96 94 94 96 98 97 96 98 96
332 330 331 338 341 336 330 318 299 311 305 287 336 30 348 355 354 342 332 279 256 182 177 183 219 217 168 186 181 202 237 173 216 180 161 221 223 171 214 210 166 175 200 210 215 236 130 143 176 191 170 169 149 127 206 247 162 110 120 146 161 152 138 120 121 137 148 132 162 178 88 96 97 101 106 109 108 99 98 100 97 98 98 97 98 97 100 100
330 328 328 334 340 338 333 318 327 330 312 302 22 15 344 357 355 351 345 277 232 156 162 177 203 166 154 189 190 209 253 184 211 201 162 200 347 199 252 205 183 205 213 216 203 164 149 146 166 199 147 119 132 136 150 288 339 87 147 168 162 131 123 121 118 121 150 170 176 254 18 105 108 106 114 117 108 100 98 97 97 99 96 96 101 101 103 103
329 326 326 329 337 342 336 313 327 324 305 344 13 348 343 357 349 352 274 280 174 162 176 166 167 166 172 189 189 211 257 165 173 196 187 198 166 200 235 200 193 198 206 225 190 129 144 145 167 191 104 78 286 199 122 191 254 100 141 159 157 126 122 131 129 133 212 201 123 129 131 116 113 112 117 117 108 106 104 99 98 101 102 102 101 101 103 104
327 326 324 324 333 338 323 304 317 311 303 343 346 333 348 346 328 298 230 285 107 154 187 158 132 177 185 186 196 210 120 133 172 186 198 203 189 210 226 180 232 225 185 160 112 170 166 148 163 170 130 139 244 232 171 206 226 116 132 153 149 125 120 126 135 129 103 341 123 126 116 98 106 118 120 118 113 114 113 110 109 107 110 111 106 105 103 101
326 326 322 320 328 337 327 311 303 293 301 321 327 331 336 324 311 249 240 280 156 185 183 151 149 188 196 185 201 224 169 166 211 171 177 208 201 239 288 263 248 223 176 169 150 160 168 146 147 151 154 205 210 198 191 199 244 133 124 105 78 75 85 89 107 116 117 223 159 129 139 131 113 129 149 137 122 120 118 118 116 110 110 113 115 115 110 105
324 325 321 319 323 337 332 307 283 287 305 313 323 325 316 305 281 217 233 255 198 183 131 153 179 190 207 186 191 232 224 205 218 166 180 219 194 211 258 276 285 236 190 209 61 104 109 10 130 141 156 214 190 188 187 182 194 163 72 62 50 34 26 37 39 50 68 235 158 140 160 157 121 143 160 134 123 125 125 126 123 122 123 119 119 117 111 107
322 321 319 315 312 319 316 289 287 320 322 324 329 316 297 276 230 229 222 225 222 171 140 170 184 182 203 194 180 211 213 201 205 181 187 211 191 198 225 236 276 265 219 191 108 127 154 176 165 133 162 207 181 177 187 183 172 103 71 75 67 26 349 19 47 42 38 223 155 134 128 95 112 146 133 126 132 133 132 134 131 129 128 122 119 114 111 108
320 318 311 304 301 299 285 272 309 329 321 325 327 298 274 232 219 241 226 232 219 162 167 195 183 179 200 203 190 195 204 197 196 202 201 195 189 205 226 212 202 216 198 159 151 168 163 140 100 113 172 237 203 175 189 178 150 108 97 104 94 174 268 106 132 92 119 222 174 132 118 92 93 113 126 130 131 135 136 136 133 131 128 121 117 112 107 104
319 316 303 295 294 287 278 278 296 308 311 314 304 261 253 234 225 225 225 251 164 153 202 206 176 182 195 201 198 196 209 201 190 204 205 204 203 200 218 207 196 229 209 197 222 184 145 92 169 166 175 233 242 208 202 207 151 114 116 124 127 194 200 103 177 123 125 224 178 130 126 107 93 112 136 130 125 131 130 127 131 133 130 123 119 115 106 100
319 312 299 294 286 277 273 272 275 287 298 282 253 236 237 239 241 219 212 231 193 175 208 196 172 185 193 202 202 194 208 209 195 197 189 202 213 190 212 208 186 208 211 192 230 224 195 172 181 181 129 167 209 187 165 219 317 102 140 174 189 202 195 44 269 102 110 203 159 128 130 114 119 141 141 131 131 134 130 127 129 129 125 121 115 110 105 102
320 311 303 298 281 270 259 247 250 263 265 241 227 230 224 229 243 235 225 217 194 187 204 198 185 187 192 207 205 194 209 223 201 201 197 206 218 199 211 201 187 219 217 154 168 304 308 257 162 134 59 190 202 161 158 173 174 88 160 188 201 203 195 195 4 55 91 124 167 124 112 109 130 139 134 136 137 133 131 132 134 133 126 119 114 113 111 107
325 317 303 282 262 252 231 220 220 229 236 225 221 227 224 231 233 235 247 226 199 188 193 196 197 191 189 203 206 192 192 223 221 212 205 183 176 229 224 178 179 224 219 84 106 242 305 307 159 144 197 242 255 99 155 146 134 5 330 233 254 259 235 233 322 54 81 114 166 122 117 128 132 134 143 148 142 139 140 140 140 136 127 123 123 119 111 103
327 319 299 271 255 231 200 195 198 212 229 222 224 235 230 233 234 232 238 218 200 199 194 191 196 197 192 190 200 188 175 197 226 214 217 184 162 246 251 190 170 227 212 126 230 246 196 315 262 194 205 215 43 354 236 111 124 180 211 211 254 280 283 323 312 235 95 121 183 137 137 145 136 146 162 157 155 157 151 146 144 136 132 132 124 115 108 103
318 312 294 271 255 213 182 187 198 210 229 222 231 249 243 239 238 239 248 224 199 203 204 197 194 202 209 192 185 184 173 181 207 187 161 219 170 281 269 216 166 250 260 148 168 222 147 223 268 247 220 165 136 267 227 144 163 203 231 213 215 263 302 37 342 294 88 116 157 119 128 138 162 177 165 166 173 166 153 150 148 142 140 133 120 117 116 115
294 287 280 252 227 184 170 182 201 217 227 219 225 239 242 246 236 225 244 236 206 206 202 196 203 206 232 241 197 183 179 188 199 177 141 120 187 269 267 227 164 229 265 211 192 162 150 210 265 259 256 147 150 230 229 170 181 203 242 239 201 172 112 161 212 271 343 135 155 137 128 146 190 191 172 172 174 163 156 157 153 145 143 136 130 126 120 122
275 271 269 204 178 161 162 177 207 224 219 219 230 230 227 243 238 218 233 237 212 219 204 196 212 201 206 249 235 194 187 201 193 151 143 174 212 238 248 245 183 196 218 226 227 147 144 192 288 279 259 178 174 218 203 73 185 213 255 268 224 103 63 261 217 90 354 309 129 155 173 155 174 192 179 166 162 164 162 158 154 147 146 141 135 130 122 117
283 277 244 177 162 157 165 188 216 218 217 220 232 237 231 241 242 218 226 241 226 220 213 221 232 210 199 227 246 250 212 203 170 130 148 211 222 229 245 265 243 190 190 213 228 15 20 163 232 276 253 245 297 248 129 129 208 232 257 274 308 33 61 286 301 63 56 299 316 155 146 141 182 194 174 156 156 168 162 154 152 148 149 144 131 126 120 109
272 259 193 167 166 169 181 214 217 208 223 225 226 235 234 241 243 218 206 223 230 219 209 231 262 249 221 203 208 281 251 204 149 137 172 215 210 207 217 246 276 7 84 41 6 24 8 254 219 266 263 309 311 309 129 154 231 253 262 259 218 145 124 284 325 7 269 257 279 146 118 120 302 95 145 149 152 160 154 152 153 146 144 138 128 126 121 113
239 250 176 167 179 190 206 228 220 211 223 231 232 233 228 232 239 224 202 204 218 220 201 195 225 247 235 195 178 244 250 209 154 154 191 217 200 195 182 204 253 314 85 54 354 13 349 300 253 286 303 315 313 306 275 191 261 276 275 289 285 182 129 94 54 251 298 346 351 58 93 210 9 49 89 138 144 150 148 150 150 141 136 134 135 135 124 118
266 281 233 188 192 209 227 228 220 214 218 232 242 245 239 230 225 224 213 201 205 213 204 196 202 216 223 209 205 244 277 261 168 155 173 189 176 196 197 184 225 265 95 98 38 301 299 333 334 320 335 348 332 319 289 198 235 284 278 275 292 308 43 64 54 87 25 13 10 61 97 185 139 108 146 151 146 146 144 144 140 133 136 141 139 132 124 122
297 283 257 200 195 213 235 235 233 227 219 225 234 245 243 225 222 229 226 213 210 212 210 207 210 213 215 213 209 221 254 252 220 137 137 160 173 182 180 184 210 210 86 92 100 202 201 8 324 319 358 282 302 313 288 290 345 327 308 265 244 304 1 20 29 30 34 19 15 65 111 167 156 148 161 156 147 143 138 139 139 140 147 147 136 127 128 131
286 251 237 193 194 218 234 241 253 259 244 233 223 226 231 224 221 227 229 227 217 211 214 217 216 217 216 216 216 214 218 225 227 188 161 174 197 179 170 189 193 95 77 70 24 300 193 148 321 352 21 273 282 270 256 266 293 292 305 313 294 344 54 22 357 36 43 16 34 85 116 152 165 163 162 158 152 148 145 145 146 151 150 139 131 133 136 134
280 266 242 198 204 221 222 234 246 249 251 253 230 208 217 225 221 213 222 235 226 216 222 222 219 220 212 211 222 223 218 221 222 216 200 194 217 182 172 186 127 92 97 126 149 291 265 168 61 16 322 276 270 252 236 233 251 258 274 339 304 301 85 48 343 74 132 292 80 137 145 156 175 180 169 163 157 150 152 156 156 155 147 137 139 144 142 135
248 260 258 293 253 225 215 222 227 228 236 246 247 209 209 218 222 210 211 226 233 226 222 221 223 224 213 208 219 225 224 228 222 215 215 207 194 163 167 203 150 124 155 189 150 151 296 41 66 29 291 274 266 258 252 241 248 263 261 228 266 267 103 116 295 10 79 4 22 166 171 173 185 178 163 160 158 153 155 160 157 151 146 145 150 152 147 142
261 265 281 341 301 252 242 231 222 224 227 228 236 226 214 213 218 215 205 212 225 215 206 221 230 227 220 213 215 222 224 235 244 229 223 213 182 160 173 209 165 147 176 199 120 74 321 59 95 240 254 268 271 269 268 260 250 258 264 249 244 248 175 171 273 21 43 0 346 100 170 291 238 168 156 155 154 154 157 157 154 150 147 149 156 157 152 147
277 297 320 338 305 271 270 259 236 227 221 217 227 235 229 218 215 215 207 206 216 208 205 214 218 230 239 227 215 217 216 223 243 251 246 238 188 220 216 204 150 159 189 181 113 67 330 167 209 249 260 272 270 257 252 255 257 256 257 262 265 266 251 148 23 29 32 346 356 24 337 302 329 130 141 146 146 151 155 155 158 155 146 149 163 163 153 145
311 310 305 309 301 283 266 253 242 238 224 212 216 228 237 230 219 217 211 209 215 211 211 219 212 219 242 242 231 228 225 225 222 230 257 242 165 273 278 301 96 115 200 149 128 142 260 228 226 239 261 278 269 253 252 261 263 258 254 266 276 277 296 332 55 67 28 353 352 333 283 328 85 109 128 138 146 152 155 159 165 158 147 157 171 162 148 140
339 311 293 275 279 287 271 240 226 235 236 223 215 216 228 237 232 226 219 223 226 214 210 227 225 213 230 242 235 223 238 246 233 215 273 254 190 199 224 186 144 148 180 197 176 194 244 263 268 266 273 282 277 285 329 325 286 264 293 316 305 281 266 278 127 125 118 66 309 307 86 93 98 122 133 142 153 157 158 167 170 154 151 168 175 156 144 140